Regional Weather Roundup
Issued by NWS

Home | Current Version | Previous Version | Graphics & Text | Print | Product List | Glossary On
Versions: 1 2 3 4 5 6 7 8 9 10 11 12 13 14 15 16 17 18 19 20 21 22 23 24 25 26 27
000
ASUS45 KPSR 250410
RWRAZ

ARIZONA HOURLY REGIONAL WEATHER ROUNDUP
NATIONAL WEATHER SERVICE PHOENIX AZ
900 PM MST TUE MAY 24 2016

NOTE: FAIR INDICATES FEW OR NO CLOUDS BELOW 12,000 FEET WITH NO
SIGNIFICANT WEATHER AND/OR OBSTRUCTIONS TO VISIBILITY.

AZZ001>003-036-250500-
NORTHWEST ARIZONA

CITY           SKY/WX    TMP DP  RH WIND       PRES   REMARKS
BULLHEAD CITY  MOCLDY    81  27  13 SE18      29.83R
KINGMAN        NOT AVBL
$$

AZZ004>008-015-016-018-250500-
NORTH CENTRAL ARIZONA

CITY           SKY/WX    TMP DP  RH WIND       PRES   REMARKS
GRAND CANYON   PTCLDY    48  12  23 SW3       30.09R
WILLIAMS       CLEAR     52  16  24 S10G21    30.16R
PRESCOTT       CLEAR     59  21  23 SE6       30.05R
FLAGSTAFF      CLEAR     51  26  37 SW16G23   30.11R
PAYSON         CLEAR     59  23  25 CALM      30.09S
PAGE           CLEAR     68  16  13 SW3       29.93R
$$

AZZ009>014-017-250500-
NORTHEAST ARIZONA

CITY           SKY/WX    TMP DP  RH WIND       PRES   REMARKS
WINSLOW        CLEAR     63  22  20 VRB3      30.04R
SAINT JOHNS    CLEAR     62  11  13 SW12G22   30.07R
WINDOW ROCK    CLEAR     51  10  19 S7        30.10R
SHOW LOW       CLEAR     52  14  22 S9        30.13R
$$

AZZ023-250500-
GREATER PHOENIX AREA

CITY           SKY/WX    TMP DP  RH WIND       PRES   REMARKS
PHOENIX        CLEAR     82  27  13 W10       29.86R
BUCKEYE        CLEAR     73  19  13 W7        29.89R
LUKE AFB       CLEAR     78  21  11 W5        29.87R
DEER VALLEY    CLEAR     76  18  11 NW6       29.89R
SCOTTSDALE     CLEAR     79  24  13 CALM      29.91R
MESA-GATEWAY   CLEAR     79  28  15 NW8       29.89R
CHANDLER       CLEAR     81  27  13 W10       29.88R
$$

AZZ027-028-250500-
SOUTHWEST MARICOPA COUNTY AND PINAL COUNTY

CITY           SKY/WX    TMP DP  RH WIND       PRES   REMARKS
CASA GRANDE    CLEAR     79  32  18 NW7       29.90R
GILA BEND      CLEAR     76  24  14 W5        29.88R
$$

AZZ503-504-507>509-250500-
SOUTHEAST ARIZONA

CITY           SKY/WX    TMP DP  RH WIND       PRES   REMARKS
TUCSON         CLEAR     78  30  17 W8        29.98R
DAVIS-MONTHAN  CLEAR     77  32  19 W9        29.96R
NOGALES        CLEAR     67  23  19 S6        30.05R
SIERRA VISTA   CLEAR     66  17  15 S7        30.10R
DOUGLAS        CLEAR     68  20  16 W7        30.06R
SAFFORD        CLEAR     76  19  11 NW15      29.94R
$$

AZZ020-021-025-026-031-250500-
SOUTHWEST ARIZONA

CITY           SKY/WX    TMP DP  RH WIND       PRES   REMARKS
YUMA           PTCLDY    74  42  31 NW13      29.88R
$$

CAZ031-033-041-043-047-048-061-250500-
SOUTHERN CALIFORNIA

CITY           SKY/WX    TMP DP  RH WIND       PRES   REMARKS
DOWNTOWN L.A.  CLOUDY    62  52  69 W3        30.04R
L.A. AIRPORT   MOCLDY    60  53  77 W7        30.04R
SAN DIEGO      MOCLDY    64  52  64 W8        30.06S
BURBANK        CLOUDY    58  51  78 S8        30.03R
ONTARIO        PTCLDY    59  49  69 W13       30.02R
RIVERSIDE      CLEAR     60  50  69 W14G20    30.02R
PALM SPRINGS   PTCLDY    75  37  25 NW5       29.88R
EL CENTRO NAS  MOCLDY    70  42  36 W26       29.91R
IMPERIAL       MOCLDY    70  44  39 W26G35    29.86S
BLYTHE         PTCLDY    74  42  31 SW23      29.85S
NEEDLES        MOCLDY    80  30  16 S13       29.83R
$$

NVZ020-UTZ003-250500-
SOUTHERN NEVADA-UTAH

CITY           SKY/WX    TMP DP  RH WIND       PRES   REMARKS
LAS VEGAS      PTCLDY    73  29  19 SW9       29.83R
SALT LAKE CITY MOCLDY    58  39  49 SE8       29.91R
$$

NMZ009-TXZ055-250500-
NEW MEXICO-WEST TEXAS

CITY           SKY/WX    TMP DP  RH WIND       PRES   REMARKS
ALBUQUERQUE    CLEAR     71  14  11 W8        30.01R
EL PASO        MOCLDY    82   9   6 W22G29    29.98R
$$


........................KEY........................
SKY/WX - SKY CONDITION/WEATHER
TMP    - TEMPERATURE IN FAHRENHEIT
DP     - DEW POINT IN FAHRENHEIT
RH     - RELATIVE HUMIDITY IN PERCENT
WIND   - DIRECTION AND SPEED IN MILES PER HOUR (MPH)
VRB    - VARIABLE WIND DIRECTION
PRES   - MEAN SEA LEVEL PRESSURE IN INCHES OF MERCURY
         F - FALLING PRESSURE   R - RISING PRESSURE
         S - STEADY PRESSURE
VSB    - VISIBILITY IN MILES
HX     - HEAT INDEX IN FAHRENHEIT
WCI    - WIND CHILL INDEX IN FAHRENHEIT
TC     - TEMPERATURE IN CELSIUS WHICH IS ALSO KNOWN AS
         TEMPERATURE IN CENTIGRADE
AFB    - AIR FORCE BASE
         LUKE AFB IS LUKE AIR FORCE BASE
         DAVIS-MONTHAN IS DAVIS-MONTHAN AIR FORCE BASE
NAS    - NAVAL AIR STATION
         EL CENTRO NAS IS EL CENTRO NAVAL AIR STATION
N/A    - NOT AVAILABLE





USA.gov is the U.S. government's official web portal to all federal, state and local government web resources and services.